Redding, CA

1:51 AM PST on November 18, 2019 (GMT -0800)
Redding Municipal

Weather History for KRDD - September, 2019

Change the Weather History Date:

Tuesday, September 3, 2019

  Actual Average Record
Temperature  
Mean Temperature 79 °F -  
Max Temperature 97 °F 93 °F 116 °F (1988)
Min Temperature 61 °F 60 °F 43 °F (1912)
Degree Days  
Heating Degree Days 0    
Cooling Degree Days 14    
Growing Degree Days 29 (Base 50)    
Moisture  
Dew Point 44 °F    
Average Humidity 36    
Maximum Humidity 60    
Minimum Humidity 11    
Precipitation  
Precipitation 0.00 in 0.02 in 0.36 in (1940)
Month to date precipitation 0.00 0.04  
Year to date precipitation 32.27 21.17  
Sea Level Pressure  
Sea Level Pressure 29.89 in    
Wind  
Wind Speed 3 mph (SSE)    
Max Wind Speed 12 mph    
Max Gust Speed 14 mph    
Visibility 10 miles    
Events      
T = Trace of Precipitation, MM = Missing Value Source: NWS Daily Summary

Daily Weather History Graph

Daily Weather History Graph

Search for Another Location

Airport or City:

Astronomy

Sep. 03, 2019 Rise Set
Actual Time 6:38 AM PDT 7:38 PM PDT
Civil Twilight 6:10 AM PDT 8:05 PM PDT
Nautical Twilight 5:37 AM PDT 8:39 PM PDT
Astronomical Twilight 5:02 AM PDT 9:13 PM PDT
Moon 11:38 AM PDT (9/3) 10:37 PM PDT (9/3)
Length of Visible Light 13h 55m
Length of Day
12h 59m
Waxing Crescent, 25% of the Moon is Illuminated
Sep 3
Waxing Crescent
Sep 5
First Quarter
Sep 13
Full
Sep 21
Last Quarter
Sep 28
New

Hourly Weather History & Observations

Time (PDT) Temp. Dew Point Humidity Pressure Visibility Wind Dir Wind Speed Gust Speed Precip Events Conditions
12:53 AM 75.0 °F 44.1 °F 33% 29.89 in 10.0 mi NNW 4.6 mph - N/A   Clear
1:53 AM 73.9 °F 44.1 °F 34% 29.89 in 10.0 mi North 4.6 mph - N/A   Clear
2:53 AM 69.1 °F 46.0 °F 44% 29.90 in 10.0 mi WNW 4.6 mph - N/A   Clear
3:53 AM 68.0 °F 48.0 °F 49% 29.91 in 10.0 mi North - - N/A   Clear
4:53 AM 64.9 °F 46.9 °F 52% 29.91 in 10.0 mi ENE 3.5 mph - N/A   Clear
5:53 AM 63.0 °F 46.9 °F 56% 29.92 in 10.0 mi Calm Calm - N/A   Clear
6:53 AM 61.0 °F 46.9 °F 60% 29.94 in 10.0 mi Calm Calm - N/A   Clear
7:53 AM 68.0 °F 48.9 °F 50% 29.95 in 10.0 mi Calm Calm - N/A   Clear
8:53 AM 73.0 °F 50.0 °F 44% 29.96 in 10.0 mi Calm Calm - N/A   Clear
9:53 AM 79.0 °F 48.0 °F 34% 29.96 in 10.0 mi Calm Calm - N/A   Clear
10:53 AM 82.0 °F 48.9 °F 31% 29.95 in 10.0 mi Calm Calm - N/A   Clear
11:53 AM 86.0 °F 46.9 °F 26% 29.93 in 10.0 mi WSW 6.9 mph - N/A   Clear
12:53 PM 90.0 °F 45.0 °F 21% 29.91 in 10.0 mi East 5.8 mph - N/A   Clear
1:53 PM 93.0 °F 44.1 °F 18% 29.90 in 10.0 mi Variable 5.8 mph - N/A   Clear
2:53 PM 93.9 °F 42.1 °F 17% 29.87 in 10.0 mi SW 6.9 mph - N/A   Clear
3:53 PM 97.0 °F 36.0 °F 12% 29.85 in 10.0 mi SE 8.1 mph - N/A   Clear
4:53 PM 97.0 °F 34.0 °F 11% 29.83 in 10.0 mi South 8.1 mph - N/A   Clear
5:53 PM 96.1 °F 33.1 °F 11% 29.82 in 10.0 mi Calm Calm - N/A   Clear
6:53 PM 95.0 °F 35.1 °F 12% 29.81 in 10.0 mi SSE 4.6 mph - N/A   Clear
7:53 PM 88.0 °F 39.9 °F 18% 29.81 in 10.0 mi ESE 3.5 mph - N/A   Clear
8:53 PM 84.0 °F 43.0 °F 24% 29.83 in 10.0 mi SSE 3.5 mph - N/A   Clear
9:53 PM 75.9 °F 45.0 °F 33% 29.84 in 10.0 mi Calm Calm - N/A   Clear
10:53 PM 73.0 °F 44.1 °F 35% 29.86 in 10.0 mi Calm Calm - N/A   Clear
11:53 PM 69.1 °F 45.0 °F 42% 29.86 in 10.0 mi Calm Calm - N/A   Clear